COSMOS 2251 DEB, 34685

Orbit data source: Space-Track

COSMOS 2251 DEB, 34685 is space debris in LEO originally from a launch on Wed, 16 Jun 1993 UTC launched from the Plesetsk Missile And Space Complex (PKMTR). The debris from Iridium 33, an American commercial communications satellite, has been tracked extensively since its accidental collision with the defunct Russian satellite Cosmos 2251 in 2009. This event, occurring at high speed in low Earth orbit (LEO), generated thousands of pieces of space debris, significantly increasing the risk of further collisions. The Iridium 33 debris cloud has impacted space traffic management and orbital debris mitigation strategies, making it a subject of ongoing study in space situational awareness.

Loading next visibility...
Identifier
34685, 1993-036YF
Orbit
LEO
Country
Flag of CISCIS
Related business
Manufacturer
Unknown
Mission
Spacecraft
Bus & Motor
Unknown
Mass
Unknown
Launch date (UTC)
1993-06-16 (33 years ago)
Launch vehicle
Unknown
Launch site
Plesetsk Missile And Space Complex (PKMTR)
Object type
Payload
Rocket body
Debris
Shape & HBR
Unknown shape, 0.1 m
Radar Cross Section
Medium (>0.1 m² and <1 m²)

Expand to show TLE details & history
Last TLE update: 17 hours ago

TLE from 17 hours ago
0 COSMOS 2251 DEB
1 34685U 93036YF  26264.88345115  .00001575  00000-0  33749-3 0  9999
2 34685  74.0299 329.3985 0014675 354.5047 124.4678 14.59511118926600
Epoch: 2026-09-21T21:12Z
TLE epoch observation values (Epoch: 2026-09-21T21:12:10.179Z)
Latitude
57.24455°
Longitude
164.33974°
Altitude
709.897 km
Speed
7.503 km/s
True Right ascension
08h 12m 33s
True Declination
57° 05' 12"
Sunlit
Object was in daylight at epoch
Visualization orbit readout
Latitude
Unknown
Longitude
Unknown
Altitude
Unknown
Speed
Unknown
Apparent Right ascension
Unknown
Apparent Declination
Unknown
Sunlit
N/A
Visualization observer readout
Local Sidereal Time
07:37:10
Azimuth
Unknown
Elevation
Unknown
Doppler factor
Unknown
Orbital elements
Apogee altitude
702.728 km
Perigee altitude
681.976 km
Semi-major axis
7,070.489 km
Eccentricity
0.00147
Inclination
74.0299°
RAAN
329.3985°
Arg. of periapsis
354.5047°
True anomaly
124.6063°
Mean anomaly
124.4678°
Eccentric anomaly
124.53706°
Mean motion
3.65064 °/min
Orbital period
98.61 mins
BSTAR
0.00033749

Documentation

Showing up to 5 results
|